Year,Month,Day,Hour,Minute,Value (Times are PST for temperature in C)
2023,03,27,00,00,3.40
2023,03,27,00,01,3.40
2023,03,27,00,02,3.40
2023,03,27,00,03,3.40
2023,03,27,00,04,3.40
2023,03,27,00,05,3.40
2023,03,27,00,07,3.40
2023,03,27,00,08,3.30
2023,03,27,00,09,3.30
2023,03,27,00,10,3.30
2023,03,27,00,11,3.30
2023,03,27,00,12,3.30
2023,03,27,00,13,3.30
2023,03,27,00,14,3.30
2023,03,27,00,15,3.40
2023,03,27,00,16,3.40
2023,03,27,00,17,3.40
2023,03,27,00,18,3.40
2023,03,27,00,19,3.40
2023,03,27,00,20,3.40
2023,03,27,00,21,3.40
2023,03,27,00,22,3.40
2023,03,27,00,24,3.40
2023,03,27,00,25,3.30
2023,03,27,00,26,3.30
2023,03,27,00,27,3.30
2023,03,27,00,28,3.30
2023,03,27,00,29,3.30
2023,03,27,00,30,3.30
2023,03,27,00,31,3.30
2023,03,27,00,32,3.30
2023,03,27,00,33,3.30
2023,03,27,00,34,3.20
2023,03,27,00,35,3.20
2023,03,27,00,36,3.20
2023,03,27,00,37,3.20
2023,03,27,00,38,3.20
2023,03,27,00,39,3.20
2023,03,27,00,40,3.30
2023,03,27,00,41,3.20
2023,03,27,00,42,3.30
2023,03,27,00,43,3.20
2023,03,27,00,44,3.30
2023,03,27,00,45,3.30
2023,03,27,00,46,3.30
2023,03,27,00,47,3.30
2023,03,27,00,48,3.30
2023,03,27,00,50,3.30
2023,03,27,00,52,3.30
2023,03,27,00,53,3.30
2023,03,27,00,54,3.30
2023,03,27,00,56,3.30
2023,03,27,00,58,3.30
2023,03,27,00,59,3.30
2023,03,27,01,00,3.30
2023,03,27,01,01,3.30
2023,03,27,01,02,3.30
2023,03,27,01,04,3.30
2023,03,27,01,05,3.30
2023,03,27,01,07,3.30
2023,03,27,01,08,3.30
2023,03,27,01,09,3.30
2023,03,27,01,10,3.30
2023,03,27,01,11,3.30
2023,03,27,01,12,3.30
2023,03,27,01,13,3.30
2023,03,27,01,14,3.30
2023,03,27,01,15,3.30
2023,03,27,01,16,3.30
2023,03,27,01,17,3.30
2023,03,27,01,18,3.30
2023,03,27,01,19,3.30
2023,03,27,01,20,3.30
2023,03,27,01,21,3.20
2023,03,27,01,22,3.20
2023,03,27,01,23,3.20
2023,03,27,01,24,3.20
2023,03,27,01,25,3.20
2023,03,27,01,26,3.20
2023,03,27,01,27,3.20
2023,03,27,01,28,3.10
2023,03,27,01,29,3.10
2023,03,27,01,30,3.10
2023,03,27,01,31,3.10
2023,03,27,01,32,3.10
2023,03,27,01,33,3.10
2023,03,27,01,34,3.10
2023,03,27,01,35,3.00
2023,03,27,01,36,3.00
2023,03,27,01,37,3.00
2023,03,27,01,38,3.00
2023,03,27,01,39,3.00
2023,03,27,01,40,2.90
2023,03,27,01,41,2.90
2023,03,27,01,42,2.90
2023,03,27,01,43,2.90
2023,03,27,01,44,2.90
2023,03,27,01,45,2.90
2023,03,27,01,46,2.90
2023,03,27,01,47,2.90
2023,03,27,01,48,2.90
2023,03,27,01,49,2.90
2023,03,27,01,50,2.90
2023,03,27,01,51,2.90
2023,03,27,01,52,2.90
2023,03,27,01,53,2.90
2023,03,27,01,54,3.00
2023,03,27,01,55,3.00
2023,03,27,01,56,3.00
2023,03,27,01,57,3.00
2023,03,27,01,58,3.00
2023,03,27,01,59,3.00
2023,03,27,02,00,3.10
2023,03,27,02,01,3.10
2023,03,27,02,02,3.10
2023,03,27,02,03,3.10
2023,03,27,02,04,3.10
2023,03,27,02,05,3.10
2023,03,27,02,06,3.10
2023,03,27,02,07,3.10
2023,03,27,02,08,3.20
2023,03,27,02,09,3.20
2023,03,27,02,10,3.20
2023,03,27,02,11,3.20
2023,03,27,02,12,3.20
2023,03,27,02,13,3.20
2023,03,27,02,14,3.20
2023,03,27,02,15,3.20
2023,03,27,02,16,3.20
2023,03,27,02,17,3.20
2023,03,27,02,18,3.20
2023,03,27,02,19,3.20
2023,03,27,02,20,3.20
2023,03,27,02,21,3.20
2023,03,27,02,22,3.20
2023,03,27,02,23,3.20
2023,03,27,02,24,3.20
2023,03,27,02,25,3.20
2023,03,27,02,26,3.20
2023,03,27,02,27,3.20
2023,03,27,02,28,3.20
2023,03,27,02,29,3.20
2023,03,27,02,30,3.20
2023,03,27,02,31,3.20
2023,03,27,02,32,3.20
2023,03,27,02,33,3.20
2023,03,27,02,34,3.20
2023,03,27,02,35,3.20
2023,03,27,02,36,3.10
2023,03,27,02,37,3.10
2023,03,27,02,38,3.10
2023,03,27,02,39,3.10
2023,03,27,02,40,3.10
2023,03,27,02,41,3.10
2023,03,27,02,42,3.10
2023,03,27,02,43,3.00
2023,03,27,02,44,3.00
2023,03,27,02,45,3.00
2023,03,27,02,46,3.00
2023,03,27,02,47,3.00
2023,03,27,02,48,3.00
2023,03,27,02,49,3.00
2023,03,27,02,50,2.90
2023,03,27,02,51,2.90
2023,03,27,02,52,2.90
2023,03,27,02,53,2.90
2023,03,27,02,54,2.90
2023,03,27,02,55,2.90
2023,03,27,02,56,2.90
2023,03,27,02,57,2.90
2023,03,27,02,58,2.90
2023,03,27,02,59,2.90
2023,03,27,03,00,3.00
2023,03,27,03,01,3.00
2023,03,27,03,02,3.00
2023,03,27,03,03,3.00
2023,03,27,03,04,3.00
2023,03,27,03,05,3.00
2023,03,27,03,06,3.00
2023,03,27,03,07,3.10
2023,03,27,03,08,3.10
2023,03,27,03,09,3.10
2023,03,27,03,10,3.00
2023,03,27,03,11,3.10
2023,03,27,03,12,3.00
2023,03,27,03,13,3.10
2023,03,27,03,14,3.10
2023,03,27,03,15,3.10
2023,03,27,03,16,3.10
2023,03,27,03,17,3.10
2023,03,27,03,18,3.10
2023,03,27,03,19,3.10
2023,03,27,03,20,3.10
2023,03,27,03,21,3.10
2023,03,27,03,22,3.10
2023,03,27,03,23,3.10
2023,03,27,03,24,3.10
2023,03,27,03,25,3.10
2023,03,27,03,26,3.10
2023,03,27,03,27,3.10
2023,03,27,03,28,3.10
2023,03,27,03,29,3.10
2023,03,27,03,30,3.10
2023,03,27,03,31,3.10
2023,03,27,03,32,3.10
2023,03,27,03,33,3.10
2023,03,27,03,34,3.10
2023,03,27,03,35,3.10
2023,03,27,03,36,3.10
2023,03,27,03,37,3.10
2023,03,27,03,38,3.10
2023,03,27,03,39,3.10
2023,03,27,03,40,3.10
2023,03,27,03,41,3.10
2023,03,27,03,42,3.10
2023,03,27,03,43,3.10
2023,03,27,03,44,3.10
2023,03,27,03,45,3.20
2023,03,27,03,46,3.20
2023,03,27,03,47,3.20
2023,03,27,03,48,3.20
2023,03,27,03,49,3.20
2023,03,27,03,50,3.20
2023,03,27,03,51,3.20
2023,03,27,03,52,3.20
2023,03,27,03,53,3.20
2023,03,27,03,54,3.20
2023,03,27,03,55,3.20
2023,03,27,03,56,3.20
2023,03,27,03,57,3.20
2023,03,27,03,58,3.20
2023,03,27,03,59,3.20
2023,03,27,04,00,3.20
2023,03,27,04,01,3.10
2023,03,27,04,02,3.10
2023,03,27,04,03,3.10
2023,03,27,04,04,3.10
2023,03,27,04,05,3.10
2023,03,27,04,06,3.10
2023,03,27,04,07,3.10
2023,03,27,04,08,3.10
2023,03,27,04,09,3.00
2023,03,27,04,10,3.00
2023,03,27,04,11,3.00
2023,03,27,04,12,2.90
2023,03,27,04,13,2.90
2023,03,27,04,14,2.90
2023,03,27,04,15,2.90
2023,03,27,04,16,2.90
2023,03,27,04,17,2.90
2023,03,27,04,18,2.90
2023,03,27,04,19,2.90
2023,03,27,04,20,2.80
2023,03,27,04,21,2.80
2023,03,27,04,22,2.80
2023,03,27,04,23,2.80
2023,03,27,04,24,2.80
2023,03,27,04,25,2.80
2023,03,27,04,26,2.80
2023,03,27,04,27,2.80
2023,03,27,04,28,2.80
2023,03,27,04,29,2.80
2023,03,27,04,30,2.80
2023,03,27,04,31,2.70
2023,03,27,04,32,2.70
2023,03,27,04,33,2.70
2023,03,27,04,34,2.70
2023,03,27,04,35,2.70
2023,03,27,04,36,2.70
2023,03,27,04,37,2.70
2023,03,27,04,38,2.70
2023,03,27,04,39,2.70
2023,03,27,04,40,2.70
2023,03,27,04,41,2.70
2023,03,27,04,42,2.70
2023,03,27,04,43,2.60
2023,03,27,04,44,2.60
2023,03,27,04,45,2.60
2023,03,27,04,46,2.60
2023,03,27,04,47,2.60
2023,03,27,04,48,2.60
2023,03,27,04,49,2.60
2023,03,27,04,50,2.60
2023,03,27,04,51,2.60
2023,03,27,04,52,2.50
2023,03,27,04,53,2.50
2023,03,27,04,54,2.50
2023,03,27,04,55,2.50
2023,03,27,04,56,2.50
2023,03,27,04,57,2.50
2023,03,27,04,58,2.50
2023,03,27,04,59,2.40
2023,03,27,05,00,2.40
2023,03,27,05,01,2.40
2023,03,27,05,02,2.40
2023,03,27,05,03,2.40
2023,03,27,05,04,2.40
2023,03,27,05,05,2.40
2023,03,27,05,06,2.40
2023,03,27,05,07,2.30
2023,03,27,05,08,2.30
2023,03,27,05,09,2.30
2023,03,27,05,10,2.30
2023,03,27,05,11,2.30
2023,03,27,05,12,2.30
2023,03,27,05,13,2.30
2023,03,27,05,14,2.30
2023,03,27,05,15,2.30
2023,03,27,05,16,2.20
2023,03,27,05,17,2.20
2023,03,27,05,18,2.20
2023,03,27,05,19,2.20
2023,03,27,05,20,2.20
2023,03,27,05,21,2.20
2023,03,27,05,22,2.20
2023,03,27,05,23,2.20
2023,03,27,05,24,2.20
2023,03,27,05,25,2.20
2023,03,27,05,26,2.20
2023,03,27,05,27,2.20
2023,03,27,05,28,2.20
2023,03,27,05,29,2.20
2023,03,27,05,30,2.10
2023,03,27,05,31,2.10
2023,03,27,05,32,2.10
2023,03,27,05,33,2.10
2023,03,27,05,34,2.10
2023,03,27,05,35,2.10
2023,03,27,05,36,2.10
2023,03,27,05,37,2.10
2023,03,27,05,38,2.10
2023,03,27,05,39,2.00
2023,03,27,05,40,2.00
2023,03,27,05,41,2.00
2023,03,27,05,42,2.00
2023,03,27,05,43,2.00
2023,03,27,05,44,2.00
2023,03,27,05,45,1.90
2023,03,27,05,46,1.90
2023,03,27,05,47,1.90
2023,03,27,05,48,1.90
2023,03,27,05,49,1.90
2023,03,27,05,50,1.90
2023,03,27,05,51,1.90
2023,03,27,05,52,1.90
2023,03,27,05,53,1.90
2023,03,27,05,54,1.90
2023,03,27,05,55,1.90
2023,03,27,05,56,1.90
2023,03,27,05,57,1.80
2023,03,27,05,58,1.80
2023,03,27,05,59,1.80
2023,03,27,06,00,1.80
2023,03,27,06,01,1.80
2023,03,27,06,02,1.80
2023,03,27,06,03,1.80
2023,03,27,06,04,1.80
2023,03,27,06,05,1.70
2023,03,27,06,06,1.70
2023,03,27,06,07,1.70
2023,03,27,06,08,1.70
2023,03,27,06,09,1.70
2023,03,27,06,10,1.70
2023,03,27,06,11,1.70
2023,03,27,06,12,1.70
2023,03,27,06,13,1.70
2023,03,27,06,14,1.70
2023,03,27,06,15,1.70
2023,03,27,06,16,1.70
2023,03,27,06,17,1.70
2023,03,27,06,18,1.70
2023,03,27,06,19,1.80
2023,03,27,06,20,1.80
2023,03,27,06,21,1.80
2023,03,27,06,22,1.80
2023,03,27,06,23,1.80
2023,03,27,06,24,1.80
2023,03,27,06,25,1.80
2023,03,27,06,26,1.80
2023,03,27,06,27,1.80
2023,03,27,06,28,1.80
2023,03,27,06,29,1.80
2023,03,27,06,30,1.80
2023,03,27,06,31,1.80
2023,03,27,06,32,1.80
2023,03,27,06,33,1.80
2023,03,27,06,34,1.80
2023,03,27,06,35,1.80
2023,03,27,06,36,1.80
2023,03,27,06,37,1.80
2023,03,27,06,38,1.80
2023,03,27,06,39,1.80
2023,03,27,06,40,1.80
2023,03,27,06,41,1.80
2023,03,27,06,42,1.90
2023,03,27,06,43,1.90
2023,03,27,06,44,1.90
2023,03,27,06,45,1.90
2023,03,27,06,46,1.90
2023,03,27,06,47,1.90
2023,03,27,06,48,1.90
2023,03,27,06,49,1.90
2023,03,27,06,50,1.90
2023,03,27,06,51,1.90
2023,03,27,06,52,2.00
2023,03,27,06,53,2.00
2023,03,27,06,54,2.00
2023,03,27,06,55,2.00
2023,03,27,06,56,2.00
2023,03,27,06,57,2.00
2023,03,27,06,58,2.10
2023,03,27,06,59,2.10
2023,03,27,07,00,2.10
2023,03,27,07,01,2.10
2023,03,27,07,02,2.10
2023,03,27,07,03,2.10
2023,03,27,07,04,2.10
2023,03,27,07,05,2.10
2023,03,27,07,06,2.10
2023,03,27,07,07,2.20
2023,03,27,07,08,2.20
2023,03,27,07,09,2.20
2023,03,27,07,10,2.20
2023,03,27,07,11,2.20
2023,03,27,07,12,2.20
2023,03,27,07,13,2.20
2023,03,27,07,14,2.20
2023,03,27,07,15,2.20
2023,03,27,07,16,2.20
2023,03,27,07,17,2.20
2023,03,27,07,18,2.30
2023,03,27,07,19,2.30
2023,03,27,07,20,2.30
2023,03,27,07,21,2.30
2023,03,27,07,22,2.30
2023,03,27,07,23,2.40
2023,03,27,07,24,2.40
2023,03,27,07,25,2.40
2023,03,27,07,26,2.40
2023,03,27,07,27,2.40
2023,03,27,07,28,2.40
2023,03,27,07,29,2.40
2023,03,27,07,30,2.40
2023,03,27,07,31,2.40
2023,03,27,07,32,2.50
2023,03,27,07,33,2.50
2023,03,27,07,34,2.50
2023,03,27,07,35,2.50
2023,03,27,07,36,2.50
2023,03,27,07,37,2.50
2023,03,27,07,38,2.50
2023,03,27,07,39,2.60
2023,03,27,07,40,2.60
2023,03,27,07,41,2.60
2023,03,27,07,42,2.60
2023,03,27,07,43,2.60
2023,03,27,07,44,2.60
2023,03,27,07,45,2.60
2023,03,27,07,46,2.60
2023,03,27,07,47,2.60
2023,03,27,07,48,2.60
2023,03,27,07,49,2.60
2023,03,27,07,50,2.60
2023,03,27,07,51,2.60
2023,03,27,07,52,2.60
2023,03,27,07,53,2.60
2023,03,27,07,54,2.70
2023,03,27,07,55,2.70
2023,03,27,07,56,2.70
2023,03,27,07,57,2.70
2023,03,27,07,58,2.70
2023,03,27,07,59,2.70
2023,03,27,08,00,2.70
2023,03,27,08,01,2.70
2023,03,27,08,02,2.70
2023,03,27,08,03,2.70
2023,03,27,08,04,2.70
2023,03,27,08,05,2.70
2023,03,27,08,06,2.80
2023,03,27,08,07,2.80
2023,03,27,08,08,2.80
2023,03,27,08,09,2.80
2023,03,27,08,10,2.80
2023,03,27,08,11,2.80
2023,03,27,08,12,2.80
2023,03,27,08,13,2.80
2023,03,27,08,14,2.80
2023,03,27,08,15,2.80
2023,03,27,08,16,2.80
2023,03,27,08,17,2.80
2023,03,27,08,18,2.80
2023,03,27,08,19,2.80
2023,03,27,08,20,2.80
2023,03,27,08,21,2.90
2023,03,27,08,22,2.90
2023,03,27,08,23,2.90
2023,03,27,08,24,2.90
2023,03,27,08,26,2.90
2023,03,27,08,28,2.90
2023,03,27,08,29,2.90
2023,03,27,08,30,2.90
2023,03,27,08,31,2.90
2023,03,27,08,33,2.90
2023,03,27,08,34,2.90
2023,03,27,08,35,2.90
2023,03,27,08,36,2.90
2023,03,27,08,37,2.90
2023,03,27,08,38,2.90
2023,03,27,08,39,2.90
2023,03,27,08,40,2.90
2023,03,27,08,41,2.90
2023,03,27,08,42,2.90
2023,03,27,08,43,2.90
2023,03,27,08,44,3.00
2023,03,27,08,45,3.00
2023,03,27,08,46,3.00
2023,03,27,08,47,3.00
2023,03,27,08,48,3.00
2023,03,27,08,50,3.00
2023,03,27,08,52,3.10
2023,03,27,08,53,3.10
2023,03,27,08,54,3.10
2023,03,27,08,55,3.10
2023,03,27,08,56,3.10
2023,03,27,08,58,3.10
2023,03,27,08,59,3.10
2023,03,27,09,00,3.10
2023,03,27,09,01,3.10
2023,03,27,09,04,3.10
2023,03,27,09,06,3.10
2023,03,27,09,07,3.10
2023,03,27,09,09,3.10
2023,03,27,09,10,3.20
2023,03,27,09,11,3.20
2023,03,27,09,12,3.20
2023,03,27,09,13,3.20
2023,03,27,09,14,3.20
2023,03,27,09,15,3.20
2023,03,27,09,16,3.20
2023,03,27,09,17,3.20
2023,03,27,09,18,3.20
2023,03,27,09,19,3.20
2023,03,27,09,20,3.20
2023,03,27,09,21,3.20
2023,03,27,09,23,3.20
2023,03,27,09,24,3.30
2023,03,27,09,26,3.30
2023,03,27,09,27,3.30
2023,03,27,09,28,3.30
2023,03,27,09,29,3.30
2023,03,27,09,30,3.30
2023,03,27,09,31,3.30
2023,03,27,09,32,3.30
2023,03,27,09,33,3.30
2023,03,27,09,35,3.30
2023,03,27,09,36,3.30
2023,03,27,09,37,3.30
2023,03,27,09,38,3.30
2023,03,27,09,40,3.40
2023,03,27,09,41,3.30
2023,03,27,09,42,3.40
2023,03,27,09,43,3.30
2023,03,27,09,44,3.30
2023,03,27,09,45,3.30
2023,03,27,09,46,3.30
2023,03,27,09,47,3.40
2023,03,27,09,49,3.40
2023,03,27,09,50,3.40
2023,03,27,09,52,3.50
2023,03,27,09,54,3.60
2023,03,27,09,55,3.70
2023,03,27,09,56,3.70
2023,03,27,09,57,3.80
2023,03,27,09,58,3.80
2023,03,27,09,59,3.90
2023,03,27,10,00,3.90
2023,03,27,10,01,4.00
2023,03,27,10,02,4.10
2023,03,27,10,03,4.10
2023,03,27,10,04,4.20
2023,03,27,10,05,4.20
2023,03,27,10,06,4.30
2023,03,27,10,08,4.30
2023,03,27,10,09,4.40
2023,03,27,10,10,4.40
2023,03,27,10,11,4.60
2023,03,27,10,12,4.60
2023,03,27,10,13,4.70
2023,03,27,10,14,4.80
2023,03,27,10,15,4.80
2023,03,27,10,16,4.90
2023,03,27,10,17,5.00
2023,03,27,10,18,5.10
2023,03,27,10,19,5.10
2023,03,27,10,20,5.20
2023,03,27,10,21,5.30
2023,03,27,10,22,5.30
2023,03,27,10,23,5.40
2023,03,27,10,24,5.50
2023,03,27,10,26,5.60
2023,03,27,10,27,5.70
2023,03,27,10,28,5.80
2023,03,27,10,29,5.80
2023,03,27,10,30,5.90
2023,03,27,10,31,5.90
2023,03,27,10,32,6.10
2023,03,27,10,34,6.20
2023,03,27,10,35,6.20
2023,03,27,10,36,6.30
2023,03,27,10,37,6.30
2023,03,27,10,38,6.40
2023,03,27,10,39,6.40
2023,03,27,10,40,6.50
2023,03,27,10,41,6.60
2023,03,27,10,42,6.60
2023,03,27,10,44,6.70
2023,03,27,10,45,6.70
2023,03,27,10,46,6.70
2023,03,27,10,47,6.70
2023,03,27,10,48,6.70
2023,03,27,10,49,6.70
2023,03,27,10,50,6.70
2023,03,27,10,51,6.70
2023,03,27,10,52,6.80
2023,03,27,10,53,6.80
2023,03,27,10,55,6.80
2023,03,27,10,56,6.80
2023,03,27,10,57,6.80
2023,03,27,10,58,6.90
2023,03,27,10,59,6.90
2023,03,27,11,00,6.90
2023,03,27,11,01,7.10
2023,03,27,11,02,7.10
2023,03,27,11,04,7.20
2023,03,27,11,05,7.30
2023,03,27,11,07,7.30
2023,03,27,11,08,7.30
2023,03,27,11,09,7.30
2023,03,27,11,11,7.30
2023,03,27,11,12,7.40
2023,03,27,11,14,7.40
2023,03,27,11,15,7.40
2023,03,27,11,16,7.50
2023,03,27,11,17,7.60
2023,03,27,11,18,7.60
2023,03,27,11,19,7.60
2023,03,27,11,21,7.50
2023,03,27,11,22,7.40
2023,03,27,11,23,7.40
2023,03,27,11,24,7.40
2023,03,27,11,25,7.40
2023,03,27,11,27,7.50
2023,03,27,11,28,7.60
2023,03,27,11,30,7.70
2023,03,27,11,31,7.70
2023,03,27,11,32,7.80
2023,03,27,11,33,7.80
2023,03,27,11,35,7.90
2023,03,27,11,36,7.90
2023,03,27,11,37,7.90
2023,03,27,11,38,7.90
2023,03,27,11,39,7.90
2023,03,27,11,40,8.00
2023,03,27,11,41,8.10
2023,03,27,11,42,8.10
2023,03,27,11,43,8.20
2023,03,27,11,44,8.40
2023,03,27,11,45,8.50
2023,03,27,11,46,8.70
2023,03,27,11,47,8.80
2023,03,27,11,48,9.00
2023,03,27,11,49,9.20
2023,03,27,11,50,9.30
2023,03,27,11,53,9.60
2023,03,27,11,54,9.70
2023,03,27,11,55,9.80
2023,03,27,11,56,9.80
2023,03,27,11,58,10.10
2023,03,27,11,59,10.20
2023,03,27,12,00,10.30
2023,03,27,12,01,10.50
2023,03,27,12,02,10.60
2023,03,27,12,04,10.70
2023,03,27,12,05,10.70
2023,03,27,12,06,10.60
2023,03,27,12,07,10.60
2023,03,27,12,08,10.60
2023,03,27,12,10,10.70
2023,03,27,12,12,10.80
2023,03,27,12,13,10.90
2023,03,27,12,14,10.90
2023,03,27,12,15,10.90
2023,03,27,12,16,11.00
2023,03,27,12,18,11.10
2023,03,27,12,19,11.10
2023,03,27,12,20,11.10
2023,03,27,12,21,11.10
2023,03,27,12,22,11.10
2023,03,27,12,23,11.10
2023,03,27,12,25,11.20
2023,03,27,12,26,11.30
2023,03,27,12,27,11.30
2023,03,27,12,28,11.30
2023,03,27,12,30,10.90
2023,03,27,12,31,10.80
2023,03,27,12,32,10.70
2023,03,27,12,33,10.70
2023,03,27,12,34,10.60
2023,03,27,12,35,10.60
2023,03,27,12,36,10.50
2023,03,27,12,37,10.40
2023,03,27,12,38,10.40
2023,03,27,12,39,10.40
2023,03,27,12,40,10.50
2023,03,27,12,41,10.60
2023,03,27,12,42,10.60
2023,03,27,12,43,10.60
2023,03,27,12,44,10.60
2023,03,27,12,45,10.50
2023,03,27,12,46,10.50
2023,03,27,12,47,10.50
2023,03,27,12,48,10.50
2023,03,27,12,49,10.50
2023,03,27,12,50,10.50
2023,03,27,12,52,10.60
2023,03,27,12,53,10.70
2023,03,27,12,54,10.70
2023,03,27,12,55,10.70
2023,03,27,12,56,10.70
2023,03,27,12,57,10.70
2023,03,27,12,59,10.80
2023,03,27,13,00,10.80
2023,03,27,13,01,10.80
2023,03,27,13,02,10.80
2023,03,27,13,03,10.90
2023,03,27,13,04,10.90
2023,03,27,13,05,11.00
2023,03,27,13,06,11.20
2023,03,27,13,07,11.20
2023,03,27,13,08,11.20
2023,03,27,13,09,11.30
2023,03,27,13,10,11.30
2023,03,27,13,11,11.30
2023,03,27,13,12,11.20
2023,03,27,13,13,11.10
2023,03,27,13,14,11.10
2023,03,27,13,15,11.10
2023,03,27,13,16,11.20
2023,03,27,13,17,11.20
2023,03,27,13,18,11.20
2023,03,27,13,19,11.20
2023,03,27,13,21,11.30
2023,03,27,13,22,11.30
2023,03,27,13,23,11.30
2023,03,27,13,24,11.30
2023,03,27,13,25,11.20
2023,03,27,13,26,11.20
2023,03,27,13,27,11.00
2023,03,27,13,28,10.90
2023,03,27,13,29,10.90
2023,03,27,13,30,10.90
2023,03,27,13,31,11.10
2023,03,27,13,32,11.20
2023,03,27,13,33,11.30
2023,03,27,13,34,11.30
2023,03,27,13,35,11.30
2023,03,27,13,36,11.40
2023,03,27,13,37,11.50
2023,03,27,13,39,11.30
2023,03,27,13,40,11.30
2023,03,27,13,42,11.30
2023,03,27,13,43,11.30
2023,03,27,13,44,11.40
2023,03,27,13,45,11.50
2023,03,27,13,46,11.60
2023,03,27,13,47,11.70
2023,03,27,13,48,11.70
2023,03,27,13,49,11.80
2023,03,27,13,50,11.70
2023,03,27,13,51,11.70
2023,03,27,13,52,11.70
2023,03,27,13,53,11.70
2023,03,27,13,54,11.70
2023,03,27,13,55,11.70
2023,03,27,13,56,11.70
2023,03,27,13,58,11.70
2023,03,27,13,59,11.80
2023,03,27,14,00,11.80
2023,03,27,14,01,11.90
2023,03,27,14,02,11.90
2023,03,27,14,04,12.10
2023,03,27,14,05,12.10
2023,03,27,14,06,12.10
2023,03,27,14,07,12.10
2023,03,27,14,08,12.10
2023,03,27,14,10,12.20
2023,03,27,14,11,12.30
2023,03,27,14,12,12.40
2023,03,27,14,13,12.40
2023,03,27,14,15,12.30
2023,03,27,14,16,12.30
2023,03,27,14,17,12.20
2023,03,27,14,18,12.20
2023,03,27,14,20,12.20
2023,03,27,14,21,12.20
2023,03,27,14,22,12.20
2023,03,27,14,23,12.10
2023,03,27,14,24,12.00
2023,03,27,14,25,11.80
2023,03,27,14,27,11.80
2023,03,27,14,28,11.90
2023,03,27,14,29,11.90
2023,03,27,14,31,12.00
2023,03,27,14,32,12.10
2023,03,27,14,33,12.10
2023,03,27,14,34,12.10
2023,03,27,14,35,12.10
2023,03,27,14,36,12.20
2023,03,27,14,37,12.20
2023,03,27,14,38,12.20
2023,03,27,14,39,12.20
2023,03,27,14,40,12.20
2023,03,27,14,42,12.10
2023,03,27,14,43,12.10
2023,03,27,14,44,12.20
2023,03,27,14,46,12.10
2023,03,27,14,47,12.10
2023,03,27,14,48,12.20
2023,03,27,14,50,12.30
2023,03,27,14,52,12.20
2023,03,27,14,53,12.30
2023,03,27,14,54,12.30
2023,03,27,14,55,12.30
2023,03,27,14,56,12.30
2023,03,27,14,59,12.40
2023,03,27,15,00,12.40
2023,03,27,15,01,12.40
2023,03,27,15,03,12.60
2023,03,27,15,04,12.50
2023,03,27,15,06,12.60
2023,03,27,15,07,12.70
2023,03,27,15,08,12.70
2023,03,27,15,10,12.90
2023,03,27,15,12,12.90
2023,03,27,15,13,13.00
2023,03,27,15,15,13.10
2023,03,27,15,16,13.20
2023,03,27,15,17,13.20
2023,03,27,15,19,13.10
2023,03,27,15,20,13.10
2023,03,27,15,21,12.90
2023,03,27,15,22,12.90
2023,03,27,15,24,12.80
2023,03,27,15,25,12.70
2023,03,27,15,27,12.60
2023,03,27,15,28,12.70
2023,03,27,15,30,12.60
2023,03,27,15,31,12.60
2023,03,27,15,32,12.60
2023,03,27,15,33,12.40
2023,03,27,15,35,12.50
2023,03,27,15,37,12.60
2023,03,27,15,38,12.60
2023,03,27,15,39,12.60
2023,03,27,15,41,12.60
2023,03,27,15,43,12.60
2023,03,27,15,44,12.70
2023,03,27,15,45,12.80
2023,03,27,15,46,12.80
2023,03,27,15,47,12.80
2023,03,27,15,48,12.80
2023,03,27,15,49,12.80
2023,03,27,15,50,12.80
2023,03,27,15,51,12.70
2023,03,27,15,53,12.50
2023,03,27,15,55,12.40
2023,03,27,15,56,12.40
2023,03,27,15,58,12.30
2023,03,27,15,59,12.40
2023,03,27,16,00,12.50
2023,03,27,16,01,12.40
2023,03,27,16,02,12.40
2023,03,27,16,04,12.30
2023,03,27,16,06,12.30
2023,03,27,16,07,12.20
2023,03,27,16,09,12.10
2023,03,27,16,10,12.20
2023,03,27,16,11,12.20
2023,03,27,16,13,12.20
2023,03,27,16,14,12.20
2023,03,27,16,15,12.30
2023,03,27,16,16,12.40
2023,03,27,16,17,12.50
2023,03,27,16,19,12.60
2023,03,27,16,20,12.60
2023,03,27,16,21,12.60
2023,03,27,16,22,12.60
2023,03,27,16,23,12.60
2023,03,27,16,24,12.40
2023,03,27,16,25,12.30
2023,03,27,16,26,12.30
2023,03,27,16,28,12.30
2023,03,27,16,29,12.30
2023,03,27,16,30,12.40
2023,03,27,16,31,12.40
2023,03,27,16,32,12.50
2023,03,27,16,33,12.50
2023,03,27,16,34,12.60
2023,03,27,16,35,12.60
2023,03,27,16,36,12.70
2023,03,27,16,37,12.70
2023,03,27,16,38,12.70
2023,03,27,16,39,12.70
2023,03,27,16,40,12.70
2023,03,27,16,42,12.80
2023,03,27,16,43,12.70
2023,03,27,16,44,12.70
2023,03,27,16,45,12.70
2023,03,27,16,47,12.70
2023,03,27,16,48,12.70
2023,03,27,16,50,12.60
2023,03,27,16,51,12.60
2023,03,27,16,52,12.70
2023,03,27,16,54,12.80
2023,03,27,16,55,12.70
2023,03,27,16,56,12.70
2023,03,27,16,57,12.80
2023,03,27,16,58,12.80
2023,03,27,16,59,12.80
2023,03,27,17,00,12.80
2023,03,27,17,01,12.80
2023,03,27,17,02,12.80
2023,03,27,17,03,12.90
2023,03,27,17,04,12.90
2023,03,27,17,05,12.80
2023,03,27,17,06,12.80
2023,03,27,17,07,12.80
2023,03,27,17,08,12.80
2023,03,27,17,10,12.80
2023,03,27,17,11,12.90
2023,03,27,17,13,12.80
2023,03,27,17,14,12.70
2023,03,27,17,15,12.70
2023,03,27,17,16,12.60
2023,03,27,17,17,12.50
2023,03,27,17,18,12.50
2023,03,27,17,19,12.50
2023,03,27,17,20,12.50
2023,03,27,17,21,12.50
2023,03,27,17,23,12.50
2023,03,27,17,24,12.50
2023,03,27,17,25,12.50
2023,03,27,17,26,12.50
2023,03,27,17,27,12.50
2023,03,27,17,28,12.50
2023,03,27,17,29,12.40
2023,03,27,17,30,12.40
2023,03,27,17,31,12.30
2023,03,27,17,32,12.20
2023,03,27,17,33,12.20
2023,03,27,17,34,12.20
2023,03,27,17,35,12.20
2023,03,27,17,36,12.20
2023,03,27,17,37,12.10
2023,03,27,17,38,12.10
2023,03,27,17,39,12.10
2023,03,27,17,40,12.10
2023,03,27,17,42,12.00
2023,03,27,17,43,12.00
2023,03,27,17,44,12.10
2023,03,27,17,45,12.10
2023,03,27,17,46,12.00
2023,03,27,17,47,11.90
2023,03,27,17,48,11.80
2023,03,27,17,49,11.70
2023,03,27,17,50,11.70
2023,03,27,17,51,11.60
2023,03,27,17,52,11.50
2023,03,27,17,54,11.50
2023,03,27,17,55,11.50
2023,03,27,17,56,11.50
2023,03,27,17,57,11.40
2023,03,27,17,58,11.40
2023,03,27,17,59,11.40
2023,03,27,18,00,11.40
2023,03,27,18,01,11.30
2023,03,27,18,02,11.30
2023,03,27,18,03,11.30
2023,03,27,18,05,11.20
2023,03,27,18,06,11.20
2023,03,27,18,08,11.10
2023,03,27,18,09,11.10
2023,03,27,18,10,11.10
2023,03,27,18,11,11.10
2023,03,27,18,12,11.10
2023,03,27,18,13,11.10
2023,03,27,18,14,11.10
2023,03,27,18,15,11.00
2023,03,27,18,16,11.00
2023,03,27,18,17,10.90
2023,03,27,18,19,10.90
2023,03,27,18,20,10.90
2023,03,27,18,21,10.90
2023,03,27,18,22,10.90
2023,03,27,18,23,11.00
2023,03,27,18,24,11.00
2023,03,27,18,25,11.00
2023,03,27,18,26,10.90
2023,03,27,18,27,10.90
2023,03,27,18,28,10.90
2023,03,27,18,29,10.90
2023,03,27,18,30,10.90
2023,03,27,18,32,10.90
2023,03,27,18,33,10.80
2023,03,27,18,34,10.80
2023,03,27,18,35,10.80
2023,03,27,18,36,10.70
2023,03,27,18,37,10.70
2023,03,27,18,38,10.70
2023,03,27,18,40,10.60
2023,03,27,18,42,10.60
2023,03,27,18,43,10.60
2023,03,27,18,44,10.50
2023,03,27,18,45,10.50
2023,03,27,18,46,10.40
2023,03,27,18,47,10.40
2023,03,27,18,49,10.40
2023,03,27,18,50,10.30
2023,03,27,18,51,10.30
2023,03,27,18,52,10.30
2023,03,27,18,53,10.20
2023,03,27,18,55,10.20
2023,03,27,18,56,10.20
2023,03,27,18,57,10.10
2023,03,27,18,58,10.10
2023,03,27,19,00,10.00
2023,03,27,19,01,9.90
2023,03,27,19,03,9.90
2023,03,27,19,04,9.80
2023,03,27,19,05,9.80
2023,03,27,19,06,9.80
2023,03,27,19,07,9.80
2023,03,27,19,08,9.70
2023,03,27,19,09,9.70
2023,03,27,19,10,9.70
2023,03,27,19,11,9.70
2023,03,27,19,12,9.70
2023,03,27,19,14,9.60
2023,03,27,19,15,9.60
2023,03,27,19,17,9.50
2023,03,27,19,18,9.50
2023,03,27,19,19,9.50
2023,03,27,19,20,9.50
2023,03,27,19,21,9.40
2023,03,27,19,22,9.40
2023,03,27,19,23,9.40
2023,03,27,19,24,9.40
2023,03,27,19,25,9.40
2023,03,27,19,26,9.30
2023,03,27,19,27,9.30
2023,03,27,19,29,9.30
2023,03,27,19,30,9.20
2023,03,27,19,31,9.20
2023,03,27,19,32,9.20
2023,03,27,19,33,9.10
2023,03,27,19,34,9.10
2023,03,27,19,35,9.10
2023,03,27,19,36,9.10
2023,03,27,19,37,9.00
2023,03,27,19,38,9.00
2023,03,27,19,39,8.90